FENGYUN 1C DEB, 38136

Orbit data source: Space-Track

FENGYUN 1C DEB, 38136 is space debris in SSO originally from a launch on Mon, 10 May 1999 UTC launched from the Taiyaun Space Center, China (TSC). Fengyun 1C debris stems from the Chinese weather satellite Fengyun-1C, which was intentionally destroyed by a Chinese anti-satellite missile in 2007. This event dramatically increased the amount of space debris, with thousands of trackable fragments posing hazards to satellites and human spaceflight. The Fengyun 1C debris cloud has become a focal point in discussions about space sustainability and the need for international regulations to prevent the creation of new debris.

Loading next visibility...
Identifier
38136, 1999-025EQH
Orbit
SSO
Country
Flag of CNCN / PRC
Related business
Manufacturer
Unknown
Mission
Spacecraft
Bus & Motor
Unknown
Mass
Unknown
Launch date (UTC)
1999-05-10 (27 years ago)
Launch vehicle
Unknown
Launch site
Taiyaun Space Center, China (TSC)
Object type
Payload
Rocket body
Debris
Shape & HBR
Unknown shape, 1.1 m
Radar Cross Section
Medium (>0.1 m² and <1 m²)

Expand to show TLE details & history
Last TLE update: 1 week ago

TLE from 1 week ago
0 FENGYUN 1C DEB
1 38136U 99025EQH 26255.35653859  .00001471  00000-0  10019-2 0  9996
2 38136  98.5608  94.3947 0140501  55.6606 305.7761 13.96688321126021
Epoch: 2026-09-12T08:33Z
TLE epoch observation values (Epoch: 2026-09-12T08:33:24.934Z)
Latitude
0.00006°
Longitude
-25.32591°
Altitude
849.294 km
Speed
7.458 km/s
True Right ascension
06h 17m 34s
True Declination
0° 00' 00"
Sunlit
Object was in daylight at epoch
Visualization orbit readout
Latitude
Unknown
Longitude
Unknown
Altitude
Unknown
Speed
Unknown
Apparent Right ascension
Unknown
Apparent Declination
Unknown
Sunlit
N/A
Visualization observer readout
Local Sidereal Time
03:41:57
Azimuth
Unknown
Elevation
Unknown
Doppler factor
Unknown
Orbital elements
Apogee altitude
1,004.761 km
Perigee altitude
800.174 km
Semi-major axis
7,280.605 km
Eccentricity
0.01405
Inclination
98.5608°
RAAN
94.3947°
Arg. of periapsis
55.6606°
True anomaly
304.45645°
Mean anomaly
305.7761°
Eccentric anomaly
305.11762°
Mean motion
3.49375 °/min
Orbital period
103.04 mins
BSTAR
0.0010019
Loading maneuver chart data...
Computing Atmospheric mass density...

Documentation

Showing up to 5 results
|